Location: Bailleul
(50.3375°N, 2.8513°E)
Time: 16:58:45
(UTC+00:00)

Cosmos 909 Rocket - Pass Details

Date: 19 April 2021
Orbit: 989 x 2090 km, 65.9° (Epoch: 06 May)

Event Time Altitude Azimuth Distance (km) Brightness Sun altitude
Rises 20:26:20 0° 213° (SSW) 3,770 7.0 -14.3°
Reaches altitude 10° 20:28:56 10° 213° (SSW) 2,774 6.3 -14.6°
Maximum altitude 20:35:13 84° 127° (SE) 1,006 4.0 -15.3°
Drops below altitude 10° 20:41:47 10° 40° (NE) 2,887 6.5 -16.1°
Sets 20:44:32 0° 40° (NE) 3,935 7.2 -16.4°
